����������;��������(kVARh)
2019-08-26 00:00;10,95
2019-08-26 00:15;12
2019-08-26 00:30;12,8
2019-08-26 00:45;12,4
2019-08-26 01:00;15,8
2019-08-26 01:15;14,75
2019-08-26 01:30;14,85
2019-08-26 01:45;14,4
2019-08-26 02:00;14,5
2019-08-26 02:15;15,6
2019-08-26 02:30;15,5
2019-08-26 02:45;16,65
2019-08-26 03:00;16,5
2019-08-26 03:15;16,7
2019-08-26 03:30;17,65
2019-08-26 03:45;17,85
2019-08-26 04:00;17,2
2019-08-26 04:15;16,1
2019-08-26 04:30;16,25
2019-08-26 04:45;16,1
2019-08-26 05:00;16,45
2019-08-26 05:15;16,25
2019-08-26 05:30;16,05
2019-08-26 05:45;16,6
2019-08-26 06:00;15,2
2019-08-26 06:15;15,1
2019-08-26 06:30;13,1
2019-08-26 06:45;13,95
2019-08-26 07:00;13,2
2019-08-26 07:15;12,6
2019-08-26 07:30;17,65
2019-08-26 07:45;36,6
2019-08-26 08:00;38,25
2019-08-26 08:15;35,5
2019-08-26 08:30;32,65
2019-08-26 08:45;34,3
2019-08-26 09:00;42,3
2019-08-26 09:15;42,55
2019-08-26 09:30;50,2
2019-08-26 09:45;58,3
2019-08-26 10:00;51,4
2019-08-26 10:15;57,8
2019-08-26 10:30;57,35
2019-08-26 10:45;53,7
2019-08-26 11:00;64,95
2019-08-26 11:15;54,9
2019-08-26 11:30;49,4
2019-08-26 11:45;60,45
2019-08-26 12:00;59,5
2019-08-26 12:15;58,05
2019-08-26 12:30;64,8
2019-08-26 12:45;59,15
2019-08-26 13:00;57,05
2019-08-26 13:15;51,1
2019-08-26 13:30;47,9
2019-08-26 13:45;60,75
2019-08-26 14:00;60,15
2019-08-26 14:15;60,15
2019-08-26 14:30;67,75
2019-08-26 14:45;55,65
2019-08-26 15:00;57,4
2019-08-26 15:15;54,25
2019-08-26 15:30;53,05
2019-08-26 15:45;55
2019-08-26 16:00;54,5
2019-08-26 16:15;48,5
2019-08-26 16:30;53,1
2019-08-26 16:45;49,55
2019-08-26 17:00;41,5
2019-08-26 17:15;42,4
2019-08-26 17:30;45,35
2019-08-26 17:45;45,8
2019-08-26 18:00;41,65
2019-08-26 18:15;40,6
2019-08-26 18:30;38,95
2019-08-26 18:45;38,15
2019-08-26 19:00;39
2019-08-26 19:15;38,5
2019-08-26 19:30;36
2019-08-26 19:45;36
2019-08-26 20:00;35,5
2019-08-26 20:15;36,9
2019-08-26 20:30;35
2019-08-26 20:45;35,55
2019-08-26 21:00;34,5
2019-08-26 21:15;37,55
2019-08-26 21:30;37,95
2019-08-26 21:45;33,75
2019-08-26 22:00;33,95
2019-08-26 22:15;24,1
2019-08-26 22:30;20,75
2019-08-26 22:45;22,05
2019-08-26 23:00;23,75
2019-08-26 23:15;23,2
2019-08-26 23:30;23,2
2019-08-26 23:45;26,45
2019-08-27 00:00;23,1
2019-08-27 00:15;25,95
2019-08-27 00:30;28,45
2019-08-27 00:45;21,35
2019-08-27 01:00;17
2019-08-27 01:15;14,4
2019-08-27 01:30;14,8
2019-08-27 01:45;16,3
2019-08-27 02:00;15,6
2019-08-27 02:15;14,75
2019-08-27 02:30;15,65
2019-08-27 02:45;15,6
2019-08-27 03:00;16,95
2019-08-27 03:15;16,15
2019-08-27 03:30;16,65
2019-08-27 03:45;15,3
2019-08-27 04:00;16,05
2019-08-27 04:15;14,85
2019-08-27 04:30;15,45
2019-08-27 04:45;16,35
2019-08-27 05:00;15,2
2019-08-27 05:15;16,85
2019-08-27 05:30;16,15
2019-08-27 05:45;15,4
2019-08-27 06:00;15,95
2019-08-27 06:15;13,9
2019-08-27 06:30;14,2
2019-08-27 06:45;14,35
2019-08-27 07:00;15,75
2019-08-27 07:15;16,45
2019-08-27 07:30;16,1
2019-08-27 07:45;33,65
2019-08-27 08:00;37,85
2019-08-27 08:15;32,25
2019-08-27 08:30;26,45
2019-08-27 08:45;30
2019-08-27 09:00;23,05
2019-08-27 09:15;37,4
2019-08-27 09:30;46,5
2019-08-27 09:45;40,4
2019-08-27 10:00;45,25
2019-08-27 10:15;48,85
2019-08-27 10:30;45,1
2019-08-27 10:45;55,85
2019-08-27 11:00;53
2019-08-27 11:15;52,05
2019-08-27 11:30;62,3
2019-08-27 11:45;59
2019-08-27 12:00;59,55
2019-08-27 12:15;53,2
2019-08-27 12:30;51,85
2019-08-27 12:45;58,1
2019-08-27 13:00;57,65
2019-08-27 13:15;56,8
2019-08-27 13:30;64,55
2019-08-27 13:45;61
2019-08-27 14:00;60
2019-08-27 14:15;56,6
2019-08-27 14:30;53,3
2019-08-27 14:45;64,95
2019-08-27 15:00;58,55
2019-08-27 15:15;53,95
2019-08-27 15:30;55
2019-08-27 15:45;54,25
2019-08-27 16:00;52,65
2019-08-27 16:15;52,8
2019-08-27 16:30;42,2
2019-08-27 16:45;57,9
2019-08-27 17:00;45,7
2019-08-27 17:15;41,65
2019-08-27 17:30;48,3
2019-08-27 17:45;34,8
2019-08-27 18:00;35,15
2019-08-27 18:15;31,3
2019-08-27 18:30;31,7
2019-08-27 18:45;31,1
2019-08-27 19:00;32,25
2019-08-27 19:15;30,8
2019-08-27 19:30;31,3
2019-08-27 19:45;29,5
2019-08-27 20:00;29,9
2019-08-27 20:15;28,05
2019-08-27 20:30;25,85
2019-08-27 20:45;28,65
2019-08-27 21:00;30,35
2019-08-27 21:15;32,3
2019-08-27 21:30;32,2
2019-08-27 21:45;30,3
2019-08-27 22:00;23,7
2019-08-27 22:15;22,05
2019-08-27 22:30;22,35
2019-08-27 22:45;12,75
2019-08-27 23:00;16,95
2019-08-27 23:15;16,9
2019-08-27 23:30;17,4
2019-08-27 23:45;21,45
2019-08-28 00:00;10,45
2019-08-28 00:15;11,45
2019-08-28 00:30;11,75
2019-08-28 00:45;13,6
2019-08-28 01:00;14,2
2019-08-28 01:15;9,75
2019-08-28 01:30;15,95
2019-08-28 01:45;15,6
2019-08-28 02:00;14,3
2019-08-28 02:15;16,4
2019-08-28 02:30;18,15
2019-08-28 02:45;17,7
2019-08-28 03:00;19,2
2019-08-28 03:15;19,65
2019-08-28 03:30;18,3
2019-08-28 03:45;18,2
2019-08-28 04:00;18,3
2019-08-28 04:15;18,85
2019-08-28 04:30;19,7
2019-08-28 04:45;18,35
2019-08-28 05:00;19,8
2019-08-28 05:15;18,2
2019-08-28 05:30;18,2
2019-08-28 05:45;18,95
2019-08-28 06:00;17,6
2019-08-28 06:15;17,25
2019-08-28 06:30;15,95
2019-08-28 06:45;15,4
2019-08-28 07:00;16,45
2019-08-28 07:15;15,3
2019-08-28 07:30;16,8
2019-08-28 07:45;38,5
2019-08-28 08:00;36,85
2019-08-28 08:15;35,3
2019-08-28 08:30;30,45
2019-08-28 08:45;36,15
2019-08-28 09:00;30,05
2019-08-28 09:15;32,1
2019-08-28 09:30;36,5
2019-08-28 09:45;37,8
2019-08-28 10:00;58,4
2019-08-28 10:15;50,65
2019-08-28 10:30;55,7
2019-08-28 10:45;60,1
2019-08-28 11:00;53,45
2019-08-28 11:15;63,6
2019-08-28 11:30;56,45
2019-08-28 11:45;57,65
2019-08-28 12:00;70,9
2019-08-28 12:15;53,4
2019-08-28 12:30;56,7
2019-08-28 12:45;62,6
2019-08-28 13:00;53,05
2019-08-28 13:15;61,4
2019-08-28 13:30;61,75
2019-08-28 13:45;54
2019-08-28 14:00;63,55
2019-08-28 14:15;62
2019-08-28 14:30;50,95
2019-08-28 14:45;60,7
2019-08-28 15:00;55,4
2019-08-28 15:15;48,5
2019-08-28 15:30;58,95
2019-08-28 15:45;46,35
2019-08-28 16:00;49
2019-08-28 16:15;52,4
2019-08-28 16:30;45,05
2019-08-28 16:45;51,2
2019-08-28 17:00;47,75
2019-08-28 17:15;40,4
2019-08-28 17:30;44,4
2019-08-28 17:45;43,6
2019-08-28 18:00;42
2019-08-28 18:15;40,5
2019-08-28 18:30;39,75
2019-08-28 18:45;40,65
2019-08-28 19:00;39,55
2019-08-28 19:15;39,95
2019-08-28 19:30;40,3
2019-08-28 19:45;41,9
2019-08-28 20:00;35,85
2019-08-28 20:15;30,7
2019-08-28 20:30;28,25
2019-08-28 20:45;28,9
2019-08-28 21:00;29,75
2019-08-28 21:15;30,45
2019-08-28 21:30;32,1
2019-08-28 21:45;24,6
2019-08-28 22:00;20,2
2019-08-28 22:15;17,8
2019-08-28 22:30;20,2
2019-08-28 22:45;20,6
2019-08-28 23:00;18,45
2019-08-28 23:15;16,4
2019-08-28 23:30;17,7
2019-08-28 23:45;21,65
2019-08-29 00:00;17,35
2019-08-29 00:15;17,5
2019-08-29 00:30;17
2019-08-29 00:45;17,65
2019-08-29 01:00;19,9
2019-08-29 01:15;19,2
2019-08-29 01:30;18,8
2019-08-29 01:45;18,9
2019-08-29 02:00;18,1
2019-08-29 02:15;19,35
2019-08-29 02:30;19,8
2019-08-29 02:45;20,55
2019-08-29 03:00;20,3
2019-08-29 03:15;22,15
2019-08-29 03:30;21,4
2019-08-29 03:45;19,5
2019-08-29 04:00;20,8
2019-08-29 04:15;19,95
2019-08-29 04:30;20
2019-08-29 04:45;21,6
2019-08-29 05:00;21,3
2019-08-29 05:15;22,7
2019-08-29 05:30;21,25
2019-08-29 05:45;21,2
2019-08-29 06:00;19,1
2019-08-29 06:15;18,85
2019-08-29 06:30;17,6
2019-08-29 06:45;18,2
2019-08-29 07:00;17,3
2019-08-29 07:15;22,3
2019-08-29 07:30;21,9
2019-08-29 07:45;39,2
2019-08-29 08:00;48,65
2019-08-29 08:15;34,35
2019-08-29 08:30;32,65
2019-08-29 08:45;44,9
2019-08-29 09:00;47,3
2019-08-29 09:15;48,7
2019-08-29 09:30;54,8
2019-08-29 09:45;56,65
2019-08-29 10:00;50,05
2019-08-29 10:15;65,35
2019-08-29 10:30;62,2
2019-08-29 10:45;64,75
2019-08-29 11:00;65,55
2019-08-29 11:15;57,55
2019-08-29 11:30;57,55
2019-08-29 11:45;61,15
2019-08-29 12:00;58,35
2019-08-29 12:15;61,2
2019-08-29 12:30;59
2019-08-29 12:45;69,55
2019-08-29 13:00;57,45
2019-08-29 13:15;66,3
2019-08-29 13:30;65,05
2019-08-29 13:45;60,85
2019-08-29 14:00;64,35
2019-08-29 14:15;61,65
2019-08-29 14:30;66,3
2019-08-29 14:45;64,55
2019-08-29 15:00;61,9
2019-08-29 15:15;67,9
2019-08-29 15:30;57,3
2019-08-29 15:45;60,65
2019-08-29 16:00;63,45
2019-08-29 16:15;53,3
2019-08-29 16:30;62,65
2019-08-29 16:45;52,5
2019-08-29 17:00;51,95
2019-08-29 17:15;58,4
2019-08-29 17:30;51,8
2019-08-29 17:45;50
2019-08-29 18:00;52,25
2019-08-29 18:15;47,3
2019-08-29 18:30;48,8
2019-08-29 18:45;55,5
2019-08-29 19:00;53,45
2019-08-29 19:15;47,6
2019-08-29 19:30;44,95
2019-08-29 19:45;44,15
2019-08-29 20:00;43,45
2019-08-29 20:15;38,7
2019-08-29 20:30;29,7
2019-08-29 20:45;27,9
2019-08-29 21:00;27,95
2019-08-29 21:15;26,35
2019-08-29 21:30;19,65
2019-08-29 21:45;19,35
2019-08-29 22:00;15,95
2019-08-29 22:15;10,9
2019-08-29 22:30;8,65
2019-08-29 22:45;8,6
2019-08-29 23:00;12,8
2019-08-29 23:15;11,8
2019-08-29 23:30;14,7
2019-08-29 23:45;22,6
2019-08-30 00:00;19,45
2019-08-30 00:15;20,3
2019-08-30 00:30;23,4
2019-08-30 00:45;23,55
2019-08-30 01:00;25,1
2019-08-30 01:15;24,3
2019-08-30 01:30;24,9
2019-08-30 01:45;24,95
2019-08-30 02:00;27
2019-08-30 02:15;26,25
2019-08-30 02:30;16,6
2019-08-30 02:45;16,25
2019-08-30 03:00;16,75
2019-08-30 03:15;16,1
2019-08-30 03:30;17,2
2019-08-30 03:45;18,3
2019-08-30 04:00;18,85
2019-08-30 04:15;18,5
2019-08-30 04:30;16,15
2019-08-30 04:45;16,25
2019-08-30 05:00;17,05
2019-08-30 05:15;16,55
2019-08-30 05:30;16,05
2019-08-30 05:45;15,1
2019-08-30 06:00;14,35
2019-08-30 06:15;13,85
2019-08-30 06:30;14,4
2019-08-30 06:45;15,35
2019-08-30 07:00;20,65
2019-08-30 07:15;23,85
2019-08-30 07:30;24,7
2019-08-30 07:45;40,85
2019-08-30 08:00;41,95
2019-08-30 08:15;34,75
2019-08-30 08:30;39,25
2019-08-30 08:45;45,1
2019-08-30 09:00;46,9
2019-08-30 09:15;41,35
2019-08-30 09:30;46
2019-08-30 09:45;48,2
2019-08-30 10:00;55,1
2019-08-30 10:15;46,35
2019-08-30 10:30;50,75
2019-08-30 10:45;50,2
2019-08-30 11:00;56,35
2019-08-30 11:15;46,2
2019-08-30 11:30;52,15
2019-08-30 11:45;55,4
2019-08-30 12:00;50,4
2019-08-30 12:15;55,3
2019-08-30 12:30;57,7
2019-08-30 12:45;47,9
2019-08-30 13:00;52,95
2019-08-30 13:15;49,95
2019-08-30 13:30;55,45
2019-08-30 13:45;52,35
2019-08-30 14:00;47,35
2019-08-30 14:15;54,4
2019-08-30 14:30;56,2
2019-08-30 14:45;49,25
2019-08-30 15:00;52,45
2019-08-30 15:15;46,75
2019-08-30 15:30;52,85
2019-08-30 15:45;48
2019-08-30 16:00;41,95
2019-08-30 16:15;48,6
2019-08-30 16:30;42,7
2019-08-30 16:45;39,1
2019-08-30 17:00;42,15
2019-08-30 17:15;43,35
2019-08-30 17:30;37,55
2019-08-30 17:45;44,8
2019-08-30 18:00;41,75
2019-08-30 18:15;35,4
2019-08-30 18:30;40,9
2019-08-30 18:45;42,8
2019-08-30 19:00;31,3
2019-08-30 19:15;30,95
2019-08-30 19:30;29,6
2019-08-30 19:45;28,05
2019-08-30 20:00;25,4
2019-08-30 20:15;29,5
2019-08-30 20:30;27,1
2019-08-30 20:45;30,25
2019-08-30 21:00;34,15
2019-08-30 21:15;36,55
2019-08-30 21:30;39
2019-08-30 21:45;30,45
2019-08-30 22:00;21,3
2019-08-30 22:15;19,9
2019-08-30 22:30;21,55
2019-08-30 22:45;21,65
2019-08-30 23:00;26,15
2019-08-30 23:15;26
2019-08-30 23:30;24,5
2019-08-30 23:45;25,45
2019-08-31 00:00;24,4
2019-08-31 00:15;20,15
2019-08-31 00:30;16,45
2019-08-31 00:45;14,25
2019-08-31 01:00;16,2
2019-08-31 01:15;16,3
2019-08-31 01:30;16,05
2019-08-31 01:45;13,1
2019-08-31 02:00;14,35
2019-08-31 02:15;12,6
2019-08-31 02:30;11,3
2019-08-31 02:45;10,55
2019-08-31 03:00;12,15
2019-08-31 03:15;11,65
2019-08-31 03:30;10,65
2019-08-31 03:45;11,9
2019-08-31 04:00;11,95
2019-08-31 04:15;10,4
2019-08-31 04:30;10,45
2019-08-31 04:45;10,5
2019-08-31 05:00;10,95
2019-08-31 05:15;10,95
2019-08-31 05:30;11,5
2019-08-31 05:45;11,3
2019-08-31 06:00;10,5
2019-08-31 06:15;8,55
2019-08-31 06:30;9,1
2019-08-31 06:45;9,9
2019-08-31 07:00;9,6
2019-08-31 07:15;7,9
2019-08-31 07:30;12,5
2019-08-31 07:45;12,7
2019-08-31 08:00;11,15
2019-08-31 08:15;9,95
2019-08-31 08:30;10,9
2019-08-31 08:45;13,35
2019-08-31 09:00;13,35
2019-08-31 09:15;20,2
2019-08-31 09:30;18,4
2019-08-31 09:45;19,45
2019-08-31 10:00;18,9
2019-08-31 10:15;19,7
2019-08-31 10:30;17,2
2019-08-31 10:45;16,4
2019-08-31 11:00;16,2
2019-08-31 11:15;16,2
2019-08-31 11:30;16,15
2019-08-31 11:45;15,35
2019-08-31 12:00;15,75
2019-08-31 12:15;19
2019-08-31 12:30;20,15
2019-08-31 12:45;18,5
2019-08-31 13:00;18,5
2019-08-31 13:15;18,85
2019-08-31 13:30;19
2019-08-31 13:45;19
2019-08-31 14:00;18,5
2019-08-31 14:15;19,8
2019-08-31 14:30;19,8
2019-08-31 14:45;20,45
2019-08-31 15:00;21,55
2019-08-31 15:15;22,35
2019-08-31 15:30;22,55
2019-08-31 15:45;23,25
2019-08-31 16:00;23,95
2019-08-31 16:15;24,85
2019-08-31 16:30;23,65
2019-08-31 16:45;23,25
2019-08-31 17:00;22,35
2019-08-31 17:15;22,75
2019-08-31 17:30;21,05
2019-08-31 17:45;21,35
2019-08-31 18:00;20,8
2019-08-31 18:15;20,35
2019-08-31 18:30;20,4
2019-08-31 18:45;19,65
2019-08-31 19:00;21,1
2019-08-31 19:15;21,45
2019-08-31 19:30;23,85
2019-08-31 19:45;23,8
2019-08-31 20:00;23,95
2019-08-31 20:15;24,3
2019-08-31 20:30;22,5
2019-08-31 20:45;23,5
2019-08-31 21:00;22,35
2019-08-31 21:15;21,05
2019-08-31 21:30;21,1
2019-08-31 21:45;18,5
2019-08-31 22:00;12,95
2019-08-31 22:15;6,65
2019-08-31 22:30;8,8
2019-08-31 22:45;9
2019-08-31 23:00;9,4
2019-08-31 23:15;11
2019-08-31 23:30;12,8
2019-08-31 23:45;14,65
2019-09-01 00:00;11,1
2019-09-01 00:15;11,55
2019-09-01 00:30;12,4
2019-09-01 00:45;12,3
2019-09-01 01:00;9,45
2019-09-01 01:15;10,25
2019-09-01 01:30;10,25
2019-09-01 01:45;10,6
2019-09-01 02:00;9,95
2019-09-01 02:15;8,55
2019-09-01 02:30;9,35
2019-09-01 02:45;8,9
2019-09-01 03:00;9,55
2019-09-01 03:15;9,3
2019-09-01 03:30;10,4
2019-09-01 03:45;10,55
2019-09-01 04:00;10,8
2019-09-01 04:15;10,6
2019-09-01 04:30;9,8
2019-09-01 04:45;11,4
2019-09-01 05:00;11,65
2019-09-01 05:15;11,6
2019-09-01 05:30;11,05
2019-09-01 05:45;11,2
2019-09-01 06:00;10
2019-09-01 06:15;9,3
2019-09-01 06:30;8,5
2019-09-01 06:45;8,8
2019-09-01 07:00;8,55
2019-09-01 07:15;7,55
2019-09-01 07:30;7,7
2019-09-01 07:45;7,2
2019-09-01 08:00;6,5
2019-09-01 08:15;7,55
2019-09-01 08:30;9,95
2019-09-01 08:45;9,7
2019-09-01 09:00;10,05
2019-09-01 09:15;9,15
2019-09-01 09:30;8,85
2019-09-01 09:45;12,25
2019-09-01 10:00;11,35
2019-09-01 10:15;11,25
2019-09-01 10:30;10,9
2019-09-01 10:45;11,1
2019-09-01 11:00;10,65
2019-09-01 11:15;9,55
2019-09-01 11:30;10,4
2019-09-01 11:45;9,3
2019-09-01 12:00;9,75
2019-09-01 12:15;9,55
2019-09-01 12:30;9,1
2019-09-01 12:45;9,75
2019-09-01 13:00;9,35
2019-09-01 13:15;11,7
2019-09-01 13:30;13,7
2019-09-01 13:45;14
2019-09-01 14:00;15
2019-09-01 14:15;14,1
2019-09-01 14:30;13,8
2019-09-01 14:45;15
2019-09-01 15:00;15,6
2019-09-01 15:15;15,6
2019-09-01 15:30;16,05
2019-09-01 15:45;18,3
2019-09-01 16:00;22,6
2019-09-01 16:15;22,6
2019-09-01 16:30;22,35
2019-09-01 16:45;22,7
2019-09-01 17:00;20,7
2019-09-01 17:15;20,55
2019-09-01 17:30;21,05
2019-09-01 17:45;20,6
2019-09-01 18:00;20,35
2019-09-01 18:15;20,05
2019-09-01 18:30;19,7
2019-09-01 18:45;18,65
2019-09-01 19:00;19,3
2019-09-01 19:15;19,45
2019-09-01 19:30;20,8
2019-09-01 19:45;20,75
2019-09-01 20:00;20,45
2019-09-01 20:15;18,75
2019-09-01 20:30;17,6
2019-09-01 20:45;17,15
2019-09-01 21:00;18,35
2019-09-01 21:15;18,7
2019-09-01 21:30;19,95
2019-09-01 21:45;18,6
2019-09-01 22:00;16,7
2019-09-01 22:15;16,1
2019-09-01 22:30;16,9
2019-09-01 22:45;17,6
2019-09-01 23:00;19,2
2019-09-01 23:15;18,6
2019-09-01 23:30;21,3
2019-09-01 23:45;19,25

